Location: Rounton
(54.4000°N, 1.3500°W)
Time: 23:24:33
(UTC+01:00)

Vanguard 1 - Pass Details

Date: 28 February 2024
Orbit: 653 x 3825 km, 34.2° (Epoch: 21 April)

Event Time Altitude Azimuth Distance (km) Brightness Sun altitude
Rises 22:41:04 0° 260° (W) 6,164 14.4 -39.6°
Reaches altitude 10° 22:45:04 10° 252° (WSW) 5,539 14.0 -39.9°
Enters shadow 22:57:04 35° 211° (SSW) 4,660 13.1 -40.7°
Maximum altitude 23:00:37 37° 194° (SSW) 4,733 - -41.0°
Drops below altitude 10° 23:20:10 10° 138° (SE) 6,880 - -42.0°
Sets 23:25:59 0° 131° (SE) 7,757 - -42.3°
